Location: Pedholt
(56.0260°N, 10.2097°E)
Time: 06:00:52
(UTC+00:00)

SR - Pass Details

Date: 27 July 2021
Orbit: 581 x 874 km, 66.7° (Epoch: 24 September)

Event Time Altitude Azimuth Distance (km) Brightness Sun altitude
Rises 16:31:18 0° 308° (NW) 3,138 ? 23.3°
Reaches altitude 10° 16:35:10 10° 279° (W) 2,135 ? 22.7°
Maximum altitude 16:37:00 12° 256° (WSW) 1,956 ? 22.5°
Drops below altitude 10° 16:38:47 10° 233° (SW) 2,061 ? 22.2°
Sets 16:42:22 0° 203° (SSW) 2,902 ? 21.7°
